DRAGON CRS-23 (49117 NORAD) Tracking and Keplerian Element Data

This shows tracking and keplerian element data for the satellite.

Feedback or suggestion? Click here.




ElementValue
Catalog49117
NameDRAGON CRS-23
Epoch Orbit30461
Epoch Day271.55226854
Epoch Year2021
RAAN191.6395
Inclination51.6467
Eccentricity0.0004651
Argument of Perigee37.0174
Mean Anonmoly136.7384
Mean Motion15.48868153
Decay Rate4.784E-05
L11 49117U 21078A 21271.55226854 .00004784 00000-0 95378-4 0 9999
L22 49117 51.6467 191.6395 0004651 37.0174 136.7384 15.48868153304610

Live tracking and technical data element details for DRAGON CRS-23 (NORAD 49117). DRAGON CRS-23 can be tracked NOW for your location showing map with azimuth and elevation plus other details from your city location.

Track the satellite on the map from your city or location and see movement details for azimuth, elevation, latitude, longitude, range, height, and movement on the map or in text.







IsCatalogInMostPopularTable: catalog: 49117, numindb: 19
Update: records affected: 1



GetName: 49117 DRAGON CRS-23

Hit Count: updated at: Thu, 28 Oct 2021 12:25:14 GMT